Location: Bratislava
(0.0000°N, 17.1167°E)
Time: 05:58:24
(UTC+01:00)

Chunghua 1 - Pass Details

Date: 24 January 2021
Orbit: 455 x 488 km, 34.9° (Epoch: 04 March)

Event Time Altitude Azimuth Distance (km) Brightness Sun altitude
Rises 19:15:19 0° 228° (SW) 2,491 9.5 -16.9°
Reaches altitude 10° 19:17:29 10° 225° (SW) 1,620 8.2 -17.4°
Maximum altitude 19:21:10 63° 143° (SE) 526 4.5 -18.3°
Enters shadow 19:21:53 50° 90° (E) 605 4.6 -18.4°
